Theta_e
318 318 318 317 317 317 316 317 317 317 318 319 319 319 320 320 320 315 305 314 316 332 326 318 314 312 313 311 308 306 304 300 300 301 303 308 307 311 312 330 331 333 332 337 346
317 317 317 317 317 317 316 315 316 317 317 318 318 319 319 320 313 307 320 326 331 334 314 312 309 311 310 308 308 307 303 301 303 305 306 307 306 309 309 320 326 332 336 341 346
316 316 317 317 317 317 315 315 316 317 317 318 319 319 319 319 309 315 332 330 331 332 314 311 311 310 307 308 305 303 303 303 305 306 306 306 307 308 308 310 316 318 333 340 343
315 316 316 316 316 317 315 314 316 317 317 318 318 318 318 315 305 318 337 335 335 317 313 311 310 307 305 304 305 302 303 304 307 307 306 307 307 307 307 311 316 327 335 340 341
315 315 315 315 316 316 317 316 316 317 317 318 318 318 316 306 306 331 340 336 321 315 310 310 309 306 304 304 304 303 305 305 309 309 308 306 306 306 308 312 323 333 335 339 341
315 314 314 314 315 316 317 317 316 316 316 317 318 318 311 300 317 333 324 317 316 313 309 310 310 309 306 304 305 306 306 308 309 309 308 306 307 306 311 317 327 333 334 337 339
314 314 314 314 315 316 316 316 315 315 316 317 318 317 308 304 317 326 317 315 314 312 308 311 312 309 308 306 308 307 305 307 307 308 308 307 307 306 312 317 321 327 336 336 338
314 313 313 313 314 315 315 315 317 317 318 319 319 316 303 310 320 319 315 312 313 313 311 313 313 310 308 309 306 304 304 302 306 306 308 308 303 308 316 314 315 315 313 334 338
313 313 313 313 313 314 314 314 320 319 319 320 315 311 305 319 315 318 316 311 311 311 313 312 312 308 307 305 302 302 298 299 302 306 307 307 305 306 316 316 317 319 319 322 336
313 312 312 313 313 313 314 317 320 320 319 319 316 306 308 310 315 315 316 313 311 310 310 309 308 306 305 304 296 297 298 300 300 305 306 304 305 311 315 316 318 321 325 325 323
312 312 312 312 313 313 315 316 309 308 313 310 306 303 306 314 316 312 314 314 313 310 305 305 303 300 302 303 303 301 300 299 303 305 303 304 304 311 314 316 316 320 325 327 329
312 312 312 312 312 312 312 310 309 309 304 309 309 307 309 313 309 311 315 311 309 305 306 305 301 305 305 303 302 301 300 301 304 304 304 304 303 309 314 314 316 317 317 322 327
310 311 311 312 311 311 311 311 311 310 305 305 307 307 308 310 306 310 313 311 307 305 305 302 303 305 304 302 302 301 301 301 301 303 304 303 302 305 310 314 317 317 317 318 320
310 310 311 310 309 310 310 311 309 310 299 299 304 308 310 310 306 314 315 312 306 304 304 304 306 304 303 302 304 300 304 303 301 300 297 302 295 301 308 310 313 313 314 314 316
309 310 310 310 309 309 310 311 311 315 288 304 306 314 311 308 309 309 313 310 305 303 305 302 302 302 301 303 305 302 304 303 302 301 299 299 297 302 307 307 310 311 312 313 315
309 310 310 309 307 308 312 311 315 299 287 303 306 304 304 307 307 308 310 311 309 304 303 304 305 305 305 304 305 305 303 302 300 300 294 300 298 299 304 307 309 310 311 312 313
309 309 311 310 309 312 311 314 298 292 303 300 301 304 303 303 305 306 305 304 302 298 299 303 303 305 306 303 306 305 302 295 293 293 292 300 298 301 307 309 311 310 310 311 312
307 307 309 312 311 310 313 307 291 294 299 304 302 303 301 302 302 303 303 302 304 302 299 297 295 302 305 304 303 303 303 296 288 290 294 298 296 302 310 311 312 311 312 313 312
305 308 313 312 311 309 308 297 293 298 300 299 301 298 297 300 300 301 302 302 304 304 299 297 297 303 305 307 307 302 299 304 298 297 296 298 300 306 309 310 310 311 312 313 314
302 306 310 310 310 311 303 293 296 302 302 301 295 298 295 297 297 298 299 302 301 304 306 302 296 303 303 307 306 305 305 298 300 291 290 294 295 299 304 308 310 311 311 313 314
304 305 310 308 312 305 297 295 299 304 303 299 297 296 297 296 297 297 297 301 303 302 305 304 301 300 302 302 302 302 301 300 302 299 292 290 295 307 308 310 311 313 313 314 313
302 299 309 307 303 298 296 295 297 301 302 300 301 298 297 297 297 297 297 300 303 303 299 303 302 297 299 300 301 301 302 304 297 295 296 295 295 304 308 311 313 314 314 314 314
298 299 308 306 293 292 294 293 297 297 297 297 296 298 300 297 295 297 298 302 303 302 301 303 298 293 294 298 301 299 300 300 299 299 297 293 295 303 307 309 312 313 314 314 314
298 293 297 299 296 291 290 290 291 297 295 295 295 296 294 294 298 296 296 300 301 303 307 305 299 296 290 294 299 296 298 298 300 296 296 295 297 300 306 307 309 311 313 315 315
294 291 291 288 288 290 291 290 289 290 294 295 293 291 290 289 291 292 293 294 299 301 301 300 295 296 297 297 297 297 296 298 297 298 295 297 297 301 304 308 309 311 312 311 312
290 289 292 289 290 290 289 288 288 288 289 289 288 289 290 288 289 287 289 291 293 297 296 298 294 296 293 296 296 294 296 296 298 299 298 299 298 304 307 308 307 309 309 310 311
294 294 293 287 288 287 287 286 287 288 289 291 289 287 287 289 291 292 293 293 293 292 292 293 293 292 289 294 294 290 295 296 298 300 300 295 301 305 303 304 306 308 309 310 312
Wind_Speed
15 14 12 11 9 9 9 8 8 8 8 8 7 6 6 6 6 2 6 4 5 6 8 6 2 2 1 3 2 2 2 3 4 2 4 6 9 2 4 4 3 2 1 3 15
17 15 14 11 10 8 8 9 9 8 8 7 6 5 5 5 2 7 6 5 4 11 7 8 6 4 3 2 2 1 0 3 2 2 6 8 4 9 3 3 1 3 3 9 15
18 17 15 13 11 9 8 8 9 9 8 6 5 4 4 3 3 1 3 9 9 6 4 4 7 2 3 1 1 2 1 1 2 6 4 5 5 3 3 3 5 4 6 11 14
19 18 16 14 12 9 8 8 8 8 8 6 4 3 2 2 2 3 6 10 9 4 4 6 4 3 3 4 2 2 2 3 3 1 2 5 6 3 4 3 4 6 8 14 16
20 20 18 15 13 11 8 7 7 7 7 5 3 3 2 2 4 4 14 12 7 4 5 6 4 4 5 4 3 2 2 4 7 9 5 2 5 3 5 11 8 2 10 14 15
20 20 19 17 14 11 8 6 5 5 5 4 4 4 3 2 3 7 14 10 9 5 5 4 4 2 6 2 1 2 3 6 5 5 2 5 2 2 9 14 5 4 9 11 16
20 19 19 17 15 12 8 6 4 4 4 5 5 3 2 2 3 9 7 3 9 5 5 3 5 1 4 4 1 1 4 3 3 4 4 2 5 6 14 11 8 7 10 11 13
21 20 19 18 15 13 9 7 3 3 5 5 5 2 5 2 4 10 5 5 3 2 2 4 3 4 1 3 2 1 1 3 3 5 2 4 7 8 14 11 9 10 11 13 15
22 21 19 19 15 12 8 5 5 6 4 6 2 2 3 3 4 7 6 6 6 2 2 5 2 3 3 3 3 4 4 2 2 2 7 4 1 4 11 10 10 11 11 8 11
23 22 20 17 15 10 7 3 6 6 3 3 2 3 3 2 4 7 4 11 4 7 4 3 3 3 3 2 2 3 2 1 3 1 6 2 1 5 9 9 10 12 14 14 10
25 23 21 17 13 9 4 4 2 3 2 5 2 2 2 1 6 4 5 6 6 4 6 3 6 7 4 3 5 5 3 4 4 5 4 2 1 7 7 10 12 14 14 14 13
26 24 21 18 14 3 4 3 2 2 7 9 10 6 4 1 2 4 10 7 5 7 6 5 9 8 5 8 6 5 3 4 7 2 4 3 3 4 9 9 11 11 11 13 12
26 25 22 16 3 3 1 4 4 5 4 5 4 5 5 9 4 9 13 6 4 7 8 8 2 8 7 6 6 5 5 4 5 3 3 3 4 5 3 6 8 11 9 10 11
28 25 20 15 3 0 2 6 6 5 3 4 3 3 6 6 5 6 13 6 4 11 6 5 4 7 6 6 9 5 11 6 4 3 6 2 6 5 4 1 7 9 9 9 10
29 25 17 6 1 1 6 10 0 2 3 2 2 4 4 8 6 6 4 3 9 7 7 4 8 7 6 6 12 4 8 8 5 7 4 6 6 3 4 7 2 6 7 7 7
30 24 14 1 1 2 10 5 2 1 4 2 4 3 6 6 2 5 6 3 2 6 4 6 2 5 5 4 11 4 4 3 2 4 9 10 8 5 5 4 5 3 3 4 5
30 22 4 2 5 13 7 1 1 4 4 5 4 4 4 7 6 4 9 12 10 7 12 11 14 4 4 7 5 5 4 4 5 6 6 4 6 6 5 4 4 7 4 4 5
30 12 1 2 9 6 1 2 3 1 3 4 5 7 3 0 3 4 7 9 9 4 3 9 6 10 8 14 7 8 8 6 5 5 3 3 7 2 3 5 5 6 7 7 7
20 3 2 10 9 3 3 1 2 1 5 7 9 2 1 1 3 3 7 7 7 13 12 7 8 0 2 4 6 7 8 1 4 2 3 5 2 6 6 9 8 9 8 9 10
4 4 4 17 8 2 2 1 1 3 6 3 3 1 2 1 2 1 4 2 4 5 5 4 9 4 4 4 7 5 10 5 3 5 7 6 4 5 11 16 14 13 12 11 12
3 2 7 17 2 5 1 1 3 3 6 3 3 4 3 3 2 2 1 2 3 4 5 6 5 4 4 9 14 6 6 2 1 3 7 10 5 7 15 16 19 17 15 14 15
4 2 9 10 3 3 3 8 5 6 6 4 3 3 3 2 3 4 6 4 8 1 3 2 3 7 11 2 2 0 7 12 9 10 3 4 8 3 6 8 15 15 14 14 16
4 4 6 6 5 4 6 5 3 8 7 7 4 6 5 4 5 5 4 4 11 2 2 5 4 8 7 5 4 6 5 2 3 2 12 8 7 2 5 10 12 12 14 15 17
3 5 5 6 3 4 6 3 6 8 2 6 7 5 5 3 2 5 4 3 9 7 8 3 6 8 12 6 2 4 6 6 9 9 13 14 17 5 9 11 12 14 13 14 15
6 3 2 5 5 6 3 6 6 7 6 9 3 11 7 5 6 3 7 9 4 8 4 3 9 7 12 11 8 13 15 12 15 17 15 14 15 8 12 14 15 15 12 14 15
4 5 4 3 5 7 7 5 6 6 5 6 6 14 10 6 5 6 10 4 5 8 7 5 7 8 18 14 13 20 21 21 21 21 20 19 18 7 7 7 10 14 15 18 18
2 1 3 6 6 5 3 7 8 10 6 4 14 15 12 10 13 15 15 16 16 13 8 6 4 3 16 8 11 17 20 22 20 16 16 19 18 6 9 12 14 14 12 15 15
Wind_Direction
357 352 344 335 325 314 301 296 293 290 289 293 298 304 313 318 294 188 240 220 186 127 164 138 104 90 71 92 66 171 153 150 133 142 350 336 345 339 309 236 182 142 166 35 142
358 354 350 343 333 318 305 295 289 286 285 285 290 297 308 321 273 249 243 187 145 149 141 158 147 138 94 83 66 67 181 150 96 183 319 315 302 320 320 336 186 181 89 135 158
358 355 352 347 341 330 307 290 283 279 278 278 280 287 300 297 249 233 158 168 176 183 121 115 127 124 106 132 105 133 63 158 198 244 258 296 294 270 284 270 261 265 188 175 180
355 355 353 347 341 334 315 291 277 276 276 274 275 276 286 238 114 121 130 150 151 148 110 117 118 108 116 130 125 156 187 221 290 254 256 280 308 263 242 266 4 295 190 176 188
351 352 350 347 343 337 323 294 275 270 270 263 248 232 211 214 256 12 139 136 129 132 142 136 119 133 123 130 135 177 184 206 273 293 274 257 239 286 291 312 326 237 175 189 198
348 347 347 345 341 337 327 312 284 265 255 237 207 183 223 237 78 136 133 134 148 142 156 161 138 152 98 111 147 189 265 284 305 310 280 312 22 238 7 343 329 239 229 211 212
345 342 344 343 340 337 331 322 290 244 225 205 190 220 218 232 71 147 151 141 158 153 154 178 127 141 139 137 23 109 289 325 51 350 40 309 98 40 348 340 7 322 266 247 233
342 340 340 341 338 334 332 333 301 169 164 170 180 240 249 76 131 150 155 109 163 141 115 161 142 97 123 117 76 98 95 164 29 329 41 281 125 30 11 22 20 339 312 253 237
340 338 337 337 335 331 324 322 97 127 138 152 179 263 259 134 199 162 179 152 138 142 110 111 115 76 142 131 133 36 113 29 332 42 336 348 78 33 24 20 14 6 356 296 258
339 337 335 333 331 325 303 178 127 130 160 206 239 266 231 182 145 137 171 147 145 137 132 149 93 141 122 192 216 136 151 189 267 116 305 282 116 26 28 26 31 23 17 14 360
339 336 335 332 328 310 156 141 228 162 188 231 187 262 263 82 143 152 172 154 127 169 173 143 201 203 186 162 127 140 167 264 260 244 269 271 198 36 28 35 28 29 24 21 20
338 337 336 331 330 202 226 96 120 339 297 240 251 263 273 334 124 134 165 171 176 180 141 170 233 210 154 156 158 167 191 250 286 199 245 306 182 81 39 38 37 28 27 25 26
339 337 336 335 8 144 218 98 349 163 283 291 205 217 211 187 224 189 181 153 168 175 188 216 125 134 165 162 179 195 220 223 275 321 208 253 198 196 115 67 54 44 35 31 31
340 339 339 334 166 294 127 343 325 202 319 264 232 245 160 168 213 182 182 163 175 214 169 239 188 216 216 225 204 227 210 231 241 262 275 296 279 208 175 78 46 41 37 29 39
340 339 338 325 105 103 336 326 11 207 313 58 136 138 144 199 130 183 179 151 182 170 181 183 176 174 187 206 181 226 155 192 225 230 229 204 250 216 177 186 62 42 34 37 47
339 339 334 159 232 31 323 310 195 244 248 30 123 167 158 228 169 123 168 90 103 154 220 241 185 205 226 160 188 138 171 122 126 186 241 239 235 204 201 161 150 107 60 52 73
338 336 354 307 324 323 317 102 233 220 342 8 10 351 251 201 218 172 172 189 202 188 227 235 235 216 195 236 166 187 195 246 217 204 256 152 209 277 171 169 172 160 160 139 132
333 327 5 68 320 309 5 77 220 8 331 351 335 315 222 212 194 207 161 202 218 192 162 215 224 199 187 214 227 193 208 226 254 225 238 173 227 181 176 149 165 169 174 168 162
324 343 20 341 341 314 68 214 287 336 328 321 313 293 216 211 305 213 218 224 216 197 215 200 234 117 212 152 192 161 208 309 216 83 253 242 211 237 192 198 186 189 185 183 176
355 330 21 336 339 41 85 239 296 17 328 309 289 321 282 291 291 271 206 154 166 202 222 208 253 226 148 132 61 232 142 170 184 236 237 204 238 238 209 219 204 204 200 190 185
15 15 352 341 302 47 54 10 312 359 4 313 309 295 281 298 271 249 240 200 207 150 178 161 224 166 167 204 204 156 192 87 178 212 258 265 224 213 210 210 202 204 201 191 190
346 11 345 331 41 28 35 330 320 339 7 338 297 280 267 287 259 247 243 266 358 272 223 124 198 231 220 106 307 220 248 205 219 211 237 290 261 167 245 214 197 198 197 193 197
10 307 344 342 57 24 331 314 316 8 4 348 325 5 1 297 281 245 237 88 13 327 232 179 213 237 221 194 165 222 182 180 99 63 219 242 248 135 172 173 192 195 198 197 201
3 355 3 41 42 11 351 345 334 354 92 0 347 27 349 308 307 289 311 19 340 3 13 237 199 228 243 261 129 202 198 201 229 239 251 239 270 176 195 202 194 205 197 199 206
13 60 24 350 6 352 318 353 332 345 351 3 127 39 4 296 311 293 8 333 325 6 13 337 248 224 251 250 240 264 256 218 217 239 239 259 239 229 216 215 216 218 200 201 205
18 355 5 7 312 332 10 42 9 350 317 341 7 341 333 284 320 313 342 303 294 333 340 360 274 268 267 263 247 258 254 252 236 240 244 258 259 236 243 236 234 216 203 207 205
36 62 300 29 353 331 54 352 324 340 291 321 341 318 303 315 314 294 279 266 266 283 298 296 289 227 260 254 251 256 241 235 233 227 232 239 257 201 223 231 236 238 223 222 212